Location: Bougoura
(13.1861°N, 5.0773°W)
Time: 01:31:44
(UTC+00:00)

GPS 2-17 Rocket1 - Pass Details

Date: 18 September 2020
Orbit: 571 x 659 km, 20.3° (Epoch: 20 October)

Event Time Altitude Azimuth Distance (km) Brightness Sun altitude
Rises 19:47:15 0° 257° (WSW) 2,881 7.7 -22.3°
Reaches altitude 10° 19:49:35 10° 258° (WSW) 1,990 6.6 -22.8°
Maximum altitude 19:54:16 77° 344° (NNW) 653 3.1 -24.0°
Enters shadow 19:54:36 72° 29° (NNE) 667 3.0 -24.0°
